Tracking 18852 objects as of 23-Nov-2017
HD Live streaming from Space Station
objects crossing your sky now

COSMOS 1556 (GLONASS)

Track COSMOS 1556 (GLONASS) now!
COSMOS 1556 (GLONASS) is classified as:


NORAD ID: 14979
Int'l Code: 1984-047C
Perigee: 19,129.2 km
Apogee: 19,175.0 km
Inclination: 65.9 °
Period: 676.3 minutes
Semi major axis: 25523 km
RCS: 0.4372 m2 (medium)
Launch date: May 19, 1984
Source: Commonwealth of Independent States (former USSR) (CIS)
Launch site: TYURATAM MISSILE AND SPACE COMPLEX (TTMTR)
SV:
aabbcc
Your satellite tracking list
Your tracking list is empty




NASA's NSSDC Master Catalog

Two Line Element Set (TLE):
1 14979U 84047C   17326.84757140 -.00000017  00000-0  00000+0 0  9996
2 14979  65.9364  71.7303 0008976 202.5316 156.4466  2.12913300260523
Source of the keplerian elements: AFSPC